Flag for Pakistan Weather past 2 weeks in Rawalpindi, Pakistan

Now
64 °F

Passing clouds.


Feels Like: 64 °F
Forecast: 56 / 85 °F
Wind: 9 mph from Northeast

Location: Islamabad Airport


UV Index: 7 (High)

Visibility: N/A


Pressure: 30.01 "Hg

Humidity: 60%

Dew point: 50 °F

Location of RawalpindiLocation

Historic Weather in Rawalpindi

°F

Rawalpindi temperature yesterday

Maximum temperature yesterday: 70 °F (at 12:00 PM)
Minimum temperature yesterday: 59 °F (at 10:00 PM)
Average temperature yesterday: 65 °F

Past Weeks' High & Low Weather Summary

 TemperatureHumidityPressure
High86 °F (Apr 10, 1:00 PM)94% (Apr 8, 6:00 AM)30.07 "Hg (Apr 8, 6:00 AM)
Low55 °F (Apr 9, 6:00 AM)16% (Apr 10, 2:00 PM)29.80 "Hg (Apr 12, 5:00 PM)
Average70 °F57%29.94 "Hg
* Reported Apr 4 8:00 PM — Apr 19 8:00 PM, Rawalpindi, Weather by CustomWeather, © 2014

Note: Actual official high and low records may vary slightly from our data, if they occured in-between our weather recording intervals... More about our weather records

Advertising

Historic Weather Conditions — Data for Previous 24 hours

 ConditionsComfort  
Time TempWeatherWind HumidityBarometerVisibility
8:00 PM
Apr 19
66 °FPassing clouds.9 mph56%30.01 "HgN/A
7:00 PM68 °FPassing clouds.16 mph56%29.98 "HgN/A
6:00 PM70 °FPassing clouds.18 mph57%29.98 "HgN/A
5:00 PM73 °FScattered clouds.21 mph53%29.98 "HgN/A
4:00 PM77 °FScattered clouds.5 mph51%29.98 "HgN/A
3:00 PM75 °FScattered clouds.9 mph54%30.01 "HgN/A
2:00 PM73 °FScattered clouds.12 mph57%30.01 "HgN/A
1:00 PM72 °FPartly sunny.12 mph57%30.04 "HgN/A
12:00 PM70 °FScattered clouds.7 mph60%30.04 "HgN/A
11:00 AM68 °FScattered clouds.7 mph64%30.07 "HgN/A
10:00 AM66 °FPartly sunny.7 mph68%30.07 "HgN/A
9:00 AM63 °FBroken clouds.7 mph77%30.04 "HgN/A
8:00 AM63 °FBroken clouds.9 mph77%30.04 "HgN/A
7:00 AM63 °FBroken clouds.9 mph73%30.01 "HgN/A
6:00 AM61 °FBroken clouds.9 mph83%29.98 "Hg4 mi
5:00 AM59 °FPartly cloudy.9 mph82%29.98 "Hg4 mi
4:00 AM59 °FPartly cloudy.No wind82%29.95 "Hg4 mi
3:00 AM59 °FPassing clouds.No wind82%29.95 "Hg4 mi
2:00 AM59 °FPassing clouds.5 mph82%29.98 "Hg4 mi
1:00 AM59 °FPassing clouds.5 mph82%29.98 "Hg4 mi
12:00 AM59 °FPassing clouds.7 mph82%30.01 "Hg4 mi
11:00 PM
Apr 18
59 °FPassing clouds.5 mph88%30.01 "Hg4 mi
10:00 PM59 °FPassing clouds.No wind88%30.01 "Hg4 mi
9:00 PM61 °FPassing clouds.5 mph88%29.98 "Hg4 mi
Weather by CustomWeather, © 2014

See weather overview